Wind_Speed
29 27 27 27 26 27 28 28 28 27 26 23 22 22 20 19 18 17 16 14 12 12 12 12 12 11 10 9 9 10 10 10 9 9 10 10 10 11 11 12 12 12 13 13
30 29 28 28 27 27 28 28 28 28 27 24 23 22 21 20 17 17 17 16 14 13 13 12 11 10 10 10 10 11 11 11 12 11 11 10 11 11 12 11 12 12 12 13
32 30 30 30 28 27 27 28 29 28 26 24 23 22 21 21 20 18 17 17 15 14 14 12 11 11 11 12 12 12 12 12 11 11 12 12 12 12 12 12 12 13 13 14
32 32 33 29 28 28 27 27 27 28 27 26 25 24 24 22 21 20 18 17 17 16 17 17 15 14 13 13 13 13 12 12 12 12 13 13 13 12 13 13 13 13 14 14
33 33 33 30 28 28 29 28 27 27 27 27 26 26 25 24 24 22 21 19 18 19 19 18 16 15 15 15 15 14 14 14 13 14 14 14 14 14 14 14 14 15 14 15
34 35 34 31 29 28 29 28 27 27 28 28 28 28 27 26 26 24 23 22 20 18 18 18 17 17 16 17 16 15 14 14 14 15 15 15 15 14 15 16 16 16 16 16
34 35 34 32 31 30 30 27 27 27 28 29 30 29 28 27 27 26 24 23 21 19 18 18 18 18 18 18 17 17 16 16 15 15 16 16 16 16 16 17 17 16 16 16
34 35 33 31 32 31 30 28 28 28 28 28 28 28 28 28 28 26 25 23 22 20 19 19 18 18 18 17 17 17 17 17 17 17 17 17 18 18 17 17 17 17 17 17
34 33 30 30 30 31 30 29 28 28 28 28 27 28 28 29 29 27 25 24 21 20 20 20 19 19 19 19 18 18 18 17 17 18 18 18 18 18 18 18 18 18 18 18
34 33 32 30 30 31 30 30 29 28 27 27 26 26 27 27 26 25 24 22 21 21 21 20 20 20 20 20 20 19 19 18 18 19 19 18 19 19 19 18 18 19 19 20
35 34 33 31 29 30 30 29 28 27 27 27 27 27 26 27 26 25 23 22 21 21 21 20 20 21 21 21 21 20 19 19 19 19 19 19 20 20 20 20 20 20 20 21
34 34 33 31 30 30 30 30 30 29 28 27 28 28 27 26 26 24 23 21 21 22 22 21 21 21 21 21 21 21 21 20 20 20 20 20 20 20 19 20 20 20 20 20
34 34 33 32 31 31 30 30 29 28 28 28 28 27 26 26 27 26 24 23 22 22 22 22 22 22 22 22 22 23 22 21 21 21 21 20 20 20 19 19 20 19 18 19
34 34 34 32 30 30 30 30 29 29 27 27 27 27 26 25 23 24 24 24 23 23 22 22 23 22 22 22 23 23 22 22 21 21 21 21 21 21 20 20 19 19 19 20
36 34 32 32 31 31 30 30 29 28 27 26 26 25 25 25 25 24 23 23 23 23 22 23 23 23 22 23 23 23 22 21 21 21 21 21 22 21 21 20 20 20 20 20
34 33 33 33 32 31 30 29 27 25 26 26 25 25 25 24 24 23 23 23 23 23 23 23 22 22 22 22 22 22 22 22 21 21 20 20 21 21 21 20 20 21 21 21
33 32 33 33 32 30 29 27 25 25 25 24 25 25 24 23 24 24 23 23 24 23 23 22 21 21 21 21 22 22 22 22 22 21 21 20 20 20 20 21 22 22 22 22
32 31 31 31 32 32 30 28 26 25 25 24 23 24 24 24 24 24 24 23 23 22 22 22 22 22 22 22 22 22 22 22 22 22 21 20 20 21 21 22 22 22 22 23
30 29 28 29 29 29 29 29 27 25 25 24 24 24 24 24 24 24 24 23 22 22 22 22 22 22 22 22 22 22 22 22 22 22 22 22 21 22 22 22 23 24 24 24
29 29 28 28 27 27 28 28 27 26 26 25 25 25 24 24 24 24 24 24 22 22 22 21 21 21 22 22 22 21 21 21 21 21 21 22 22 22 22 23 23 23 24 24
27 28 29 28 28 27 27 26 26 26 25 25 25 25 24 24 24 24 24 23 23 22 22 21 21 22 21 21 20 20 21 21 20 21 21 22 22 22 22 23 24 24 25 26
25 25 27 27 27 26 26 25 25 25 24 24 24 23 22 22 22 22 23 22 22 22 22 21 21 20 21 20 20 20 20 20 20 20 21 21 22 23 22 22 23 23 24 25
24 24 24 24 24 25 25 24 24 24 24 24 23 22 22 22 22 21 21 21 21 20 20 19 19 19 19 20 20 19 19 19 19 19 20 21 22 22 22 22 22 23 24 26
21 22 22 22 22 22 22 22 22 22 22 22 22 21 21 21 21 21 21 21 20 20 19 19 19 19 19 19 18 18 18 18 19 19 20 20 21 22 22 23 23 24 25 26
19 20 20 21 22 21 21 20 20 20 20 20 20 20 20 19 19 19 19 18 18 18 18 17 17 16 16 16 17 17 17 18 19 19 20 21 22 22 23 24 24 25 26 26
18 19 20 21 21 20 19 18 18 18 18 18 17 17 17 17 17 17 16 16 16 16 16 16 15 15 16 17 17 18 18 19 20 21 21 21 22 23 23 25 26 26 26 27
17 17 18 18 18 19 19 17 17 18 18 18 17 16 16 16 16 15 15 14 14 15 15 15 15 16 16 17 17 17 18 19 20 20 21 22 23 23 24 25 26 26 27 27
Wind_Direction
219 219 221 222 222 224 226 230 233 235 238 244 252 256 257 257 255 260 264 265 267 273 275 272 273 275 278 281 281 282 285 288 287 292 293 294 294 294 294 290 284 280 280 278
220 220 222 224 224 225 227 230 234 236 239 244 250 253 254 259 260 263 266 266 269 271 273 268 267 270 272 276 281 281 283 286 288 289 292 295 297 300 300 298 286 278 282 283
221 222 225 227 226 228 230 230 233 235 238 242 246 250 254 258 262 266 270 268 269 270 275 273 268 265 268 274 277 281 287 289 287 287 290 292 294 297 302 303 298 293 290 286
220 221 226 227 229 231 232 233 233 235 237 239 242 250 254 259 263 266 270 272 274 272 274 273 273 270 270 272 275 279 285 288 288 289 292 292 292 293 299 302 302 302 296 289
221 223 226 225 227 231 232 233 235 236 236 239 242 249 253 257 262 266 269 272 274 270 268 269 271 270 269 269 272 277 281 286 287 289 291 290 290 291 295 300 301 302 300 294
224 225 225 224 227 232 234 233 233 236 237 241 243 248 255 259 262 264 268 271 273 271 266 265 266 266 268 272 273 275 278 283 287 289 291 291 291 291 293 294 293 294 296 294
226 226 226 225 227 230 233 234 236 238 241 243 245 249 254 259 262 265 267 269 268 267 264 264 264 264 266 268 269 272 276 281 286 288 288 290 291 291 292 293 291 291 293 292
226 226 225 225 227 230 234 236 238 241 243 247 250 251 253 257 259 263 266 267 266 267 267 266 264 266 270 270 269 272 275 282 284 285 287 292 291 290 290 291 290 290 292 292
225 226 224 223 227 231 234 236 238 242 245 250 253 254 254 256 259 262 265 264 261 263 265 264 265 267 268 269 270 272 276 281 285 288 291 293 294 292 291 290 289 289 290 291
226 224 224 224 227 229 233 237 238 242 246 251 252 254 253 256 258 261 262 259 260 262 264 263 262 264 265 267 269 272 276 279 284 287 292 295 297 293 290 289 289 289 290 291
228 225 224 226 228 230 233 236 238 241 243 249 251 252 253 256 258 259 259 258 259 261 263 263 263 263 265 267 269 271 273 276 281 286 290 293 295 293 290 289 288 288 290 292
227 227 228 230 231 231 234 239 241 243 246 249 252 254 254 255 255 256 257 259 258 261 261 261 263 264 265 265 267 269 272 276 281 284 287 290 293 293 292 292 290 288 289 292
229 230 230 231 232 232 235 238 240 244 247 250 252 254 256 257 255 255 256 256 257 260 260 261 263 265 265 265 266 270 272 275 279 281 286 288 291 293 294 294 293 289 289 291
230 232 233 232 233 235 238 241 243 244 248 251 254 255 256 260 257 253 253 253 254 256 257 260 262 264 265 266 267 270 271 275 279 281 282 284 286 289 291 293 294 290 291 291
230 233 234 234 235 238 242 244 246 245 247 250 252 252 254 257 258 255 253 252 252 254 257 260 261 262 263 266 268 269 270 274 278 279 280 282 285 287 288 291 291 291 292 290
229 231 233 234 236 237 239 243 244 244 246 249 251 251 251 253 255 254 252 253 254 255 258 259 261 262 262 264 266 267 270 273 276 278 280 282 284 285 287 288 288 288 290 290
228 230 233 233 235 238 239 241 241 244 247 249 247 248 249 252 255 256 257 257 257 256 256 258 260 261 264 265 267 269 272 274 275 276 279 281 282 284 285 286 286 286 288 289
229 229 230 232 236 239 242 244 245 246 245 246 246 247 248 250 253 255 256 257 256 255 256 257 260 261 264 267 268 270 273 275 276 276 278 280 281 282 284 286 286 287 289 291
230 228 229 231 236 238 240 244 245 246 247 247 247 249 249 251 253 254 256 258 258 258 257 259 260 262 265 266 269 271 272 274 275 276 277 278 281 281 281 283 285 287 289 289
228 229 231 233 235 237 239 241 243 245 246 246 247 248 250 253 255 257 258 258 261 262 261 260 261 263 264 266 268 270 272 274 274 275 276 278 281 283 283 285 285 286 289 290
230 231 233 234 234 237 240 242 243 243 244 245 247 248 249 252 254 256 257 259 261 262 262 261 262 262 263 265 266 269 271 272 273 275 277 278 280 282 283 285 287 288 289 290
229 230 232 232 233 235 237 238 240 242 243 244 245 246 247 250 253 255 256 258 260 262 263 261 259 260 262 263 266 269 269 269 272 276 280 283 283 285 286 287 288 290 292 294
227 227 228 229 232 234 235 237 239 241 241 242 244 246 248 251 253 254 255 257 259 260 259 258 258 260 263 265 266 265 266 269 272 276 280 283 285 286 287 289 291 294 296 297
220 222 225 227 229 231 233 235 237 238 239 240 241 244 247 249 251 253 254 256 256 256 258 258 261 261 262 262 262 262 264 267 271 275 279 283 286 288 290 292 294 295 297 298
218 220 223 225 226 228 230 232 232 233 235 236 238 241 244 247 251 252 251 251 251 253 254 255 256 258 258 258 260 263 267 272 275 278 282 285 287 290 292 295 297 297 298 299
219 221 222 222 223 223 224 226 226 226 229 231 234 237 239 243 245 246 247 248 247 249 250 251 254 257 258 259 263 267 271 275 278 281 283 286 289 292 294 297 298 299 299 301
214 217 218 220 220 221 223 226 228 228 229 231 234 236 238 239 241 241 244 246 247 249 251 253 257 260 262 266 268 272 276 279 281 283 285 288 291 294 297 298 299 299 300 301
Height
5840 5843 5846 5850 5853 5856 5859 5862 5865 5868 5870 5873 5874 5875 5875 5876 5877 5878 5879 5880 5881 5882 5882 5882 5882 5882 5882 5882 5882 5882 5881 5880 5879 5879 5878 5877 5876 5875 5873 5872 5871 5870 5869 5868
5835 5838 5841 5845 5848 5851 5854 5857 5860 5863 5866 5868 5869 5870 5871 5872 5873 5874 5875 5876 5877 5878 5878 5878 5878 5879 5879 5879 5879 5878 5878 5877 5876 5876 5874 5873 5872 5871 5870 5869 5867 5866 5865 5865
5830 5833 5836 5840 5844 5846 5849 5852 5855 5857 5861 5863 5864 5865 5866 5868 5869 5870 5871 5872 5873 5873 5874 5874 5875 5875 5875 5875 5875 5875 5874 5872 5872 5872 5871 5870 5869 5868 5867 5866 5864 5863 5862 5861
5825 5829 5831 5837 5839 5841 5844 5846 5850 5852 5855 5858 5859 5861 5862 5863 5865 5866 5867 5868 5869 5869 5870 5871 5871 5871 5871 5871 5871 5871 5871 5870 5869 5869 5868 5867 5866 5865 5864 5862 5860 5859 5857 5856
5819 5822 5826 5831 5833 5835 5838 5840 5844 5847 5849 5852 5854 5855 5857 5859 5860 5862 5863 5863 5864 5865 5866 5867 5867 5866 5867 5867 5867 5867 5867 5866 5866 5865 5864 5863 5862 5861 5860 5858 5857 5855 5854 5853
5812 5816 5819 5826 5828 5830 5833 5835 5838 5841 5843 5846 5848 5850 5852 5854 5855 5857 5858 5859 5860 5860 5861 5862 5862 5862 5862 5862 5862 5862 5862 5862 5861 5861 5860 5859 5858 5857 5856 5854 5853 5851 5850 5849
5805 5808 5813 5819 5822 5825 5828 5831 5833 5835 5838 5840 5842 5845 5847 5848 5849 5851 5852 5854 5855 5855 5855 5856 5856 5856 5856 5857 5857 5857 5857 5857 5857 5856 5855 5854 5853 5852 5851 5850 5848 5847 5845 5844
5798 5802 5809 5813 5816 5820 5822 5825 5827 5830 5832 5834 5836 5838 5840 5842 5843 5844 5846 5847 5848 5849 5849 5850 5851 5851 5851 5851 5852 5851 5852 5853 5852 5851 5851 5849 5848 5847 5846 5845 5843 5842 5840 5839
5793 5798 5803 5806 5810 5813 5816 5819 5822 5824 5826 5828 5830 5832 5834 5835 5837 5838 5839 5840 5841 5842 5844 5845 5845 5846 5846 5847 5847 5847 5847 5847 5847 5846 5845 5844 5843 5842 5840 5839 5838 5836 5835 5834
5786 5790 5795 5799 5803 5806 5810 5812 5815 5817 5820 5822 5824 5826 5827 5829 5830 5831 5832 5833 5835 5837 5838 5839 5840 5841 5841 5841 5842 5842 5842 5842 5841 5840 5839 5838 5837 5836 5834 5833 5832 5831 5829 5828
5779 5784 5788 5792 5796 5800 5803 5806 5809 5812 5814 5815 5817 5819 5821 5822 5824 5824 5826 5827 5829 5830 5832 5833 5834 5835 5835 5836 5836 5836 5836 5836 5836 5835 5834 5833 5832 5830 5829 5828 5827 5826 5824 5822
5772 5777 5782 5786 5790 5793 5797 5800 5802 5805 5807 5808 5810 5812 5814 5815 5817 5818 5820 5821 5823 5824 5826 5827 5828 5829 5829 5830 5830 5831 5831 5830 5830 5829 5829 5827 5825 5824 5823 5822 5821 5819 5818 5816
5766 5771 5775 5779 5783 5786 5790 5793 5795 5798 5800 5802 5803 5805 5807 5808 5809 5811 5813 5815 5817 5818 5820 5821 5822 5822 5823 5823 5824 5824 5824 5824 5823 5823 5822 5821 5820 5818 5817 5816 5814 5813 5811 5810
5759 5764 5769 5773 5776 5780 5783 5785 5788 5791 5793 5796 5797 5798 5801 5801 5801 5804 5806 5808 5810 5812 5813 5815 5815 5816 5816 5817 5817 5817 5817 5817 5817 5816 5816 5815 5814 5812 5811 5810 5809 5807 5805 5804
5753 5757 5762 5766 5770 5774 5776 5779 5781 5783 5786 5789 5790 5792 5794 5795 5796 5798 5800 5801 5803 5805 5807 5808 5809 5809 5810 5810 5811 5811 5811 5811 5811 5810 5809 5809 5807 5806 5805 5804 5803 5801 5799 5798
5746 5750 5755 5760 5764 5767 5770 5772 5774 5776 5779 5781 5783 5786 5787 5789 5790 5792 5793 5795 5797 5798 5800 5801 5802 5803 5803 5804 5804 5804 5804 5804 5804 5803 5803 5802 5801 5800 5799 5798 5796 5795 5793 5792
5739 5743 5747 5752 5756 5760 5763 5765 5767 5770 5772 5774 5777 5779 5781 5783 5784 5785 5787 5788 5789 5791 5793 5794 5795 5796 5797 5798 5798 5798 5798 5798 5798 5797 5796 5796 5795 5794 5793 5792 5790 5789 5787 5785
5731 5735 5740 5744 5749 5753 5756 5758 5761 5763 5765 5768 5769 5772 5774 5776 5777 5779 5780 5781 5782 5784 5786 5787 5788 5789 5790 5791 5791 5791 5791 5791 5791 5791 5790 5789 5789 5788 5787 5785 5784 5782 5780 5779
5725 5728 5733 5737 5741 5745 5749 5751 5754 5756 5758 5760 5763 5765 5767 5769 5770 5772 5773 5775 5776 5778 5779 5780 5782 5783 5783 5784 5784 5784 5785 5784 5784 5784 5783 5782 5781 5781 5780 5779 5777 5775 5773 5771
5718 5722 5726 5730 5733 5737 5741 5744 5746 5749 5752 5754 5756 5759 5761 5762 5764 5766 5767 5769 5770 5771 5772 5773 5775 5776 5776 5777 5777 5778 5778 5778 5777 5777 5777 5776 5775 5773 5772 5771 5770 5768 5766 5764
5712 5715 5719 5723 5727 5730 5733 5736 5739 5742 5744 5747 5749 5752 5754 5756 5758 5759 5761 5762 5763 5764 5766 5767 5768 5769 5769 5770 5770 5771 5771 5771 5771 5771 5770 5769 5768 5767 5766 5764 5763 5761 5759 5757
5706 5709 5713 5716 5720 5723 5726 5729 5732 5735 5737 5740 5743 5745 5748 5750 5752 5753 5754 5756 5757 5758 5759 5760 5761 5762 5762 5763 5764 5764 5764 5764 5764 5764 5763 5762 5761 5760 5759 5757 5755 5754 5752 5749
5701 5704 5707 5710 5714 5717 5720 5723 5726 5728 5731 5734 5736 5739 5742 5744 5745 5747 5749 5750 5751 5752 5753 5754 5755 5756 5756 5757 5757 5758 5758 5758 5758 5758 5757 5756 5755 5754 5752 5750 5748 5746 5744 5742
5696 5699 5702 5705 5708 5711 5714 5717 5720 5722 5725 5728 5730 5733 5735 5737 5739 5741 5742 5743 5745 5746 5747 5748 5749 5750 5751 5751 5752 5752 5752 5752 5752 5752 5751 5750 5749 5747 5746 5744 5742 5739 5737 5734
5691 5694 5697 5700 5703 5707 5710 5712 5715 5717 5720 5722 5725 5727 5730 5732 5734 5735 5737 5738 5739 5741 5742 5743 5744 5744 5745 5746 5747 5747 5747 5746 5746 5746 5745 5743 5742 5740 5739 5736 5734 5732 5729 5726
5688 5691 5693 5696 5700 5703 5706 5708 5711 5714 5716 5719 5721 5723 5725 5727 5728 5730 5732 5733 5735 5736 5737 5738 5739 5740 5740 5741 5741 5741 5741 5740 5740 5739 5738 5737 5735 5733 5731 5729 5727 5724 5721 5719
5684 5687 5690 5693 5696 5699 5702 5705 5708 5710 5713 5715 5718 5719 5721 5723 5725 5726 5728 5730 5731 5732 5733 5734 5734 5735 5735 5735 5735 5735 5735 5734 5733 5732 5731 5730 5728 5726 5724 5722 5719 5716 5714 5711